{"data":{"norad_id":37809,"epoch":"2026-05-25T03:26:38.623776Z","epoch_age_seconds":76738,"freshness":"FRESH","line1":"1 37809U 11049A   26145.14350259  .00000000  00000+0  00000+0 0  9997","line2":"2 37809   0.0195  69.8981 0002987 354.6720 142.8326  1.00268430 53736","mean_motion":1.0026843,"eccentricity":0.0002987,"inclination_deg":0.0195,"raan_deg":69.8981,"arg_perigee_deg":354.672,"mean_anomaly_deg":142.8326,"bstar":0,"rev_number":5373,"period_min":1436.1449560944,"perigee_km":35774.940629325,"apogee_km":35800.130402086,"semimajor_km":42165.672515706,"source":"CELESTRAK","updated_at":"2026-05-25T13:38:14.504790Z"}}